Regional Weather Roundup
Issued by NWS State College, PA

Home | Current Version | Previous Version | Text Only | Print | Product List | Glossary Off
Versions: 1 2 3 4 5 6 7 8 9 10 11 12 13 14 15 16 17 18 19 20 21 22 23 24 25 26 27 28 29 30 31 32 33 34 35 36 37 38 39 40 41 42 43 44 45 46 47 48 49 50

000
ASUS41 KCTP 232010
RWRCTP

REGIONAL WEATHER ROUNDUP
NATIONAL WEATHER SERVICE STATE COLLEGE PA
400 PM EDT THU OCT 23 2014

Note: "fair" indicates few or no clouds below 12,000 feet with no
significant weather and/or obstructions to visibility.

* = STATION THAT DOES NOT REPORT PRECIPITATION /E.G. RAIN...SNOW...ETC/
    THUNDER OR FOG.

PAZ002>004-007>009-013>016-020>023-029>032-232100-
WESTERN PENNSYLVANIA

CITY           SKY/WX    TMP DP  RH WIND       PRES   REMARKS
ERIE           SUNNY     57  42  57 W10       30.11F
MEADVILLE      SUNNY     56  41  57 NW9G16    30.09F
FRANKLIN*      SUNNY     57  37  47 NW7G16    30.08S
NEW CASTLE       N/A     59  43  55 NW14      30.09F
BEAVER COUNTY  PTSUNNY   59  43  55 NW9G16    30.08F
BUTLER*        SUNNY     59  41  51 NW10G17   30.07F
PITTSBURGH INT MOSUNNY   60  42  51 NW14      30.06F
PITTSBURGH     SUNNY     60  40  47 NW10G20   30.04S
INDIANA*       SUNNY     61  39  44 NW10G22   30.04S
LATROBE        MOSUNNY  N/A N/A N/A NW17      30.04F
WASHINGTON CO* MOSUNNY   61  43  51 N10G17    30.09F
$$

PAZ004>006-010>012-017>019-024>028-033>037-041-042-045-046-049>053-232100-
CENTRAL PENNSYLVANIA

CITY           SKY/WX    TMP DP  RH WIND       PRES   REMARKS
BRADFORD       SUNNY     56  37  49 NW14G23   30.01S
DUBOIS         SUNNY     59  38  45 NW20G28   29.98F
CLEARFIELD     CLOUDY    60  39  45 N10G25    29.96S
JOHNSTOWN      SUNNY     57  38  48 NW16G29   29.98S
ALTOONA        PTSUNNY   60  42  51 N10G22    29.94S
STATE COLLEGE  CLOUDY    59  43  55 N14G26    29.92S
WILLIAMSPORT   CLOUDY    59  43  55 N13G23    29.87F
SELINSGROVE    CLOUDY    59  44  57 N8        29.87S
FT INDIANTOWN  CLOUDY    58  47  68 VRB7G18   29.83S
CAPITAL CITY   CLOUDY    62  45  53 NW16G22   29.85R
HARRISBURG     PTSUNNY   60  44  55 N18G25    29.83S
YORK           CLOUDY    61  45  55 NW14G20   29.84S
$$

PAZ038>040-043-044-047-048-054-055-060>062-067>071-232100-
EASTERN PENNSYLVANIA

CITY           SKY/WX    TMP DP  RH WIND       PRES   REMARKS
SCRANTON       CLOUDY    50  44  80 CALM      29.84S
MOUNT POCONO   LGT RAIN  44  41  89 N17G28    29.80R
ALLENTOWN      CLOUDY    54  43  66 NW15G25   29.80R
QUAKERTOWN*    CLOUDY    54  45  71 N13G23    29.80R
READING        CLOUDY    55  44  66 N17G23    29.82R
LANCASTER      CLOUDY    57  44  62 NW12      29.82S
COATESVILLE    CLOUDY    54  46  76 NW15      29.81S
POTTSTOWN      CLOUDY    54  44  69 NW23G30   29.81S
BLUE BELL      CLOUDY    55  45  67 NW6G20    29.77S
DOYLESTOWN     CLOUDY    53  44  71 NW18G26   29.76F
WILLOW GROVE   NOT AVBL
NORTH PHILA    CLOUDY    57  43  59 NW21G29   29.77S
PHILADELPHIA   CLOUDY    57  44  62 NW23G29   29.77S
$$



USA.gov is the U.S. government's official web portal to all federal, state and local government web resources and services.